Location: Stara Lesna
(49.1528°N, 20.2911°E)
Time: 06:55:29
(UTC+02:00)

Meteor 1-26 Rocket - Pass Details

Date: 21 September 2019
Orbit: 818 x 917 km, 81.3° (Epoch: 17 October)

Event Time Altitude Azimuth Distance (km) Brightness Sun altitude
Exits shadow 03:50:16 62° 261° (W) 934 4.1 -24.4°
Maximum altitude 03:50:41 64° 285° (WNW) 919 4.1 -24.3°
Drops below altitude 10° 03:56:14 10° 7° (N) 2,474 7.1 -23.6°
Sets 03:58:43 0° 10° (N) 3,428 8.0 -23.2°
